Location: Gerlach
(40.6516°N, 119.3568°W)
Time: 09:15:22
(UTC-08:00)

Explorer 11/Cluster Stage 4 - Visible Passes

Search period start: 22 February 2024 00:00
Search period end: 03 March 2024 00:00
Orbit: 465 x 1224 km, 28.8° (Epoch: 21 February)

Date Brightness Start Highest point End Pass type
(mag) Time Alt. Az. Time Alt. Az. Time Alt. Az.
22 Feb 8.1 04:21:35 27° S 04:21:35 27° S 04:25:57 10° SE visible
22 Feb 8.4 06:04:56 10° WSW 06:08:38 17° SSW 06:11:55 10° SSE visible
23 Feb 8.2 04:05:57 26° SSE 04:05:57 26° SSE 04:09:38 10° SE visible
23 Feb 8.4 05:48:11 10° WSW 05:52:05 17° SSW 05:55:33 10° SSE visible
24 Feb 8.5 03:50:20 23° SSE 03:50:20 23° SSE 03:53:15 10° SE visible
24 Feb 8.5 05:32:04 12° WSW 05:35:30 18° SSW 05:39:09 10° SSE visible
25 Feb 8.8 03:34:43 20° SE 03:34:43 20° SE 03:36:51 10° SE visible
25 Feb 8.5 05:16:27 15° SW 05:18:53 18° SSW 05:22:41 10° SSE visible
26 Feb 9.1 03:19:08 15° SE 03:19:08 15° SE 03:20:22 10° SE visible
26 Feb 8.6 05:00:52 17° SW 05:02:13 18° SSW 05:06:09 10° SSE visible
27 Feb 9.5 03:03:35 11° SE 03:03:35 11° SE 03:03:50 10° SE visible
27 Feb 8.6 04:45:20 18° SSW 04:45:31 18° SSW 04:49:35 10° SSE visible
28 Feb 8.8 04:29:49 17° SSW 04:29:49 17° SSW 04:32:55 10° SSE visible
29 Feb 9.0 04:14:22 14° S 04:14:22 14° S 04:16:12 10° SSE visible
01 Mar 9.3 03:58:57 11° S 03:58:57 11° S 03:59:24 10° S visible
